Temp
14 14 14 14 15 15 15 16 16 17 17 17 17 17 18 18 18 18 18 19 19 19 19 18 18 19 19 19 19 19 19 19 19 19 18 18 18 19 19 20 20 20 20 21 21 21 21 22 21 21 22 22 21 20 20 20 20 20 20 19 19 19 19 20 20 19 19 19 18 17 16 17 18 17 16 16 16 17 16 16 16 16 16 16 17 18 17 15
14 14 14 15 15 15 16 16 16 17 17 17 17 17 17 18 18 18 18 18 18 18 18 18 18 18 19 19 19 19 19 19 19 18 18 18 18 19 19 19 20 20 20 20 20 19 20 21 19 19 21 21 20 20 21 20 20 21 19 19 20 19 19 19 19 19 18 18 18 17 16 16 17 17 16 17 17 16 16 16 16 16 17 17 16 16 16 15
14 14 15 15 15 16 16 16 16 17 17 17 17 17 18 18 18 18 18 18 18 18 18 18 17 18 18 19 19 19 18 19 19 18 18 18 18 19 19 20 20 20 20 20 20 19 19 19 18 18 20 21 20 20 21 20 19 20 19 19 20 19 18 18 17 18 17 17 17 17 16 15 16 17 16 17 17 16 16 16 16 17 17 17 16 14 13 13
14 15 15 15 16 16 16 16 17 17 17 17 17 18 18 18 18 18 18 18 18 18 18 17 17 17 18 19 19 18 18 19 18 18 18 18 19 19 19 20 20 20 20 20 20 20 19 18 18 19 20 21 20 20 20 20 19 19 19 20 20 18 18 18 17 17 17 16 17 17 16 16 16 16 16 16 16 16 16 16 16 17 17 17 16 14 12 12
15 15 15 16 16 16 17 17 17 17 17 18 18 18 18 18 18 18 18 18 18 18 18 18 17 18 19 19 19 18 19 19 19 18 18 19 19 19 19 20 20 20 20 20 20 20 20 19 19 20 20 20 20 20 20 19 19 19 19 19 19 17 18 19 17 17 17 16 16 17 16 17 16 16 16 16 16 17 18 17 16 17 17 16 16 14 12 12
15 16 16 16 16 17 17 17 17 17 18 18 18 18 19 19 18 18 18 18 18 18 18 18 18 18 19 19 19 19 19 19 18 18 19 19 19 19 20 20 20 20 20 20 20 20 20 19 19 20 20 20 20 20 20 18 18 19 19 18 18 17 18 18 17 17 16 16 17 17 17 16 16 17 16 16 16 17 18 18 17 17 16 15 15 14 13 13
16 16 16 16 17 17 17 17 18 18 18 18 19 19 19 19 19 19 18 19 19 19 19 19 19 19 19 19 19 18 18 18 18 18 19 19 19 19 20 20 20 20 20 20 20 20 20 19 20 20 20 20 19 19 18 18 18 19 19 18 18 17 17 18 17 17 16 16 17 16 16 16 17 17 16 16 16 17 17 16 17 16 13 13 14 14 14 13
16 16 16 17 17 17 17 18 18 18 18 19 19 19 19 19 19 19 19 19 19 19 19 19 19 19 19 19 19 18 18 18 18 19 19 19 19 19 20 20 20 20 21 20 19 19 20 20 20 19 20 20 19 19 18 18 18 18 18 18 17 18 18 18 17 17 17 16 16 15 16 16 16 16 16 17 17 17 16 16 16 16 14 14 14 14 14 13
16 17 17 17 17 17 18 18 18 18 19 19 19 19 19 19 19 19 19 19 19 19 19 19 19 19 19 18 18 18 18 18 19 19 19 19 20 20 20 20 20 20 20 20 19 19 20 19 20 19 20 19 18 18 17 18 19 17 17 17 17 17 17 17 17 17 16 16 16 16 16 16 16 15 16 18 18 17 17 17 16 15 15 15 15 14 14 14
17 17 17 17 17 18 18 18 18 19 19 19 19 19 19 19 19 19 20 19 19 19 19 19 19 19 19 18 18 19 19 19 19 19 19 19 20 20 20 20 20 20 20 20 19 19 19 19 19 18 19 19 18 17 16 18 18 16 17 17 17 16 16 16 17 17 16 16 16 16 17 16 16 15 17 19 19 17 17 18 17 15 15 15 15 15 14 14
17 17 17 17 18 18 18 18 19 19 20 20 20 20 20 19 19 20 20 19 19 19 19 19 19 19 19 18 18 19 19 19 19 19 19 19 20 20 20 20 20 20 20 19 19 18 18 18 17 17 18 19 18 17 17 17 16 16 16 17 17 16 17 16 16 16 15 16 17 16 16 16 15 15 17 19 19 17 16 17 17 15 15 15 15 15 15 15
17 17 17 18 18 18 18 19 19 19 20 20 20 20 20 20 20 20 20 19 20 20 20 20 19 19 19 18 18 19 19 19 19 19 20 20 20 20 20 20 20 20 20 19 19 19 19 18 18 19 19 18 18 18 17 16 16 17 16 17 18 17 18 17 16 16 16 17 17 16 17 16 16 17 19 20 17 15 15 16 16 16 15 15 15 15 15 15
17 18 18 18 18 18 19 19 19 20 20 20 20 20 20 20 20 20 20 19 20 20 20 20 20 20 19 19 19 20 19 19 19 19 20 20 20 20 20 20 20 20 20 19 19 19 19 19 20 19 17 18 18 17 17 15 16 17 16 16 17 18 19 18 15 16 16 16 16 17 17 17 17 18 19 19 17 15 16 17 16 16 15 15 15 15 15 15
18 18 18 18 18 19 19 19 20 20 20 20 20 20 20 20 20 20 20 20 20 20 20 20 20 19 19 19 20 20 20 20 20 20 20 20 20 21 21 21 21 20 20 20 20 20 20 20 19 17 16 17 17 16 16 16 17 17 16 16 15 16 19 18 15 15 17 16 16 17 16 16 18 18 18 18 17 16 17 17 16 16 16 15 15 15 15 15
18 18 18 19 19 19 19 20 20 20 20 20 20 20 20 20 20 20 20 20 20 20 20 20 20 19 19 19 20 20 20 20 20 20 20 20 19 20 20 21 21 21 21 20 20 20 20 20 19 18 17 16 16 16 17 17 17 16 17 17 15 15 17 16 15 15 17 16 15 17 16 16 17 17 18 17 16 16 16 16 16 16 16 16 16 15 15 15
18 19 19 19 19 19 19 20 20 20 20 20 20 20 20 20 20 20 20 20 20 20 20 20 20 20 20 19 20 20 20 20 20 20 20 19 19 19 19 20 20 21 21 20 20 20 20 20 17 16 17 17 15 14 16 18 17 14 15 16 16 15 14 15 16 15 15 16 15 16 15 16 17 17 18 16 16 16 15 15 15 16 16 16 16 15 15 16
19 19 19 19 19 19 19 20 20 20 20 20 20 20 20 20 20 21 20 20 20 20 20 20 19 19 20 20 20 20 19 19 20 20 19 19 19 19 19 19 19 19 19 20 20 20 19 18 16 16 16 15 13 14 17 17 16 15 13 14 15 13 13 14 16 14 14 15 15 15 15 15 16 16 16 16 16 15 15 15 15 16 16 16 16 16 16 15
19 19 19 19 19 19 20 20 20 20 20 20 20 20 20 20 20 21 21 21 21 20 20 20 20 20 20 20 19 19 19 19 20 20 19 19 19 19 19 19 18 18 19 19 20 19 19 17 17 18 16 14 13 14 17 16 15 15 14 14 14 12 13 14 15 15 13 14 14 14 15 15 15 15 15 16 16 15 16 16 15 16 16 16 16 16 16 15
19 19 19 19 19 20 20 20 20 20 20 20 20 20 21 21 20 20 20 20 20 20 20 19 19 19 19 19 18 18 19 19 20 20 19 19 19 19 19 18 18 18 19 20 20 18 18 18 17 17 16 14 13 13 15 15 14 14 13 13 13 12 13 14 15 14 12 13 15 15 15 14 14 14 15 16 15 15 16 17 17 16 16 16 16 16 16 15
19 19 19 20 20 20 20 20 20 20 21 21 20 20 21 20 20 20 19 19 18 17 18 18 18 18 19 19 18 19 20 20 20 19 18 18 18 19 19 18 19 19 18 18 18 16 16 17 16 15 14 13 13 12 13 13 13 13 13 13 13 12 13 14 14 13 12 13 15 14 14 13 14 14 15 15 15 16 17 17 17 17 17 16 15 16 16 16
19 19 20 20 20 20 20 20 20 21 21 20 20 19 19 19 19 19 18 18 16 15 17 18 17 18 18 18 18 18 18 20 19 18 18 18 18 20 19 17 19 19 16 15 16 16 16 17 15 14 13 13 13 12 12 12 12 13 13 14 14 13 13 14 13 13 11 12 14 13 13 14 14 15 15 15 16 18 16 16 17 17 17 16 15 16 16 16
19 19 20 20 20 20 20 20 20 21 20 21 20 17 16 16 17 17 17 19 18 16 17 17 17 18 18 18 18 17 17 19 19 18 18 18 18 19 18 17 18 17 15 15 17 18 17 16 14 13 12 12 13 12 12 13 13 13 13 14 14 13 13 14 14 13 11 12 14 13 12 14 14 15 16 16 16 18 16 14 15 15 16 16 16 16 16 16
20 19 19 20 20 20 20 20 21 20 20 21 19 17 16 17 17 17 17 19 19 17 17 18 18 18 18 19 18 18 18 18 18 18 17 17 17 17 17 17 17 16 15 16 18 18 17 16 14 12 11 13 14 14 13 14 13 13 13 14 14 13 13 14 14 13 11 11 12 13 13 14 14 16 18 17 15 17 16 15 14 14 15 16 15 15 16 17
20 20 20 20 20 20 20 20 20 20 20 20 19 17 17 17 17 17 17 18 19 19 17 17 18 18 18 18 18 18 18 17 17 18 17 16 16 16 16 16 16 17 15 15 17 17 16 15 13 12 12 13 15 14 13 14 14 13 13 14 14 13 12 12 12 11 11 12 11 13 15 16 16 16 18 17 15 17 17 15 15 15 15 15 15 16 16 16
20 20 20 20 20 20 20 20 20 20 20 19 18 17 17 17 17 17 18 19 20 20 18 18 18 18 18 18 17 17 17 17 17 17 17 15 15 16 17 15 16 17 15 14 16 17 16 13 12 14 14 14 15 15 13 13 14 14 15 14 13 12 11 11 10 10 14 15 12 13 15 17 17 16 16 16 16 18 17 15 16 16 16 17 18 17 16 16
20 20 20 20 20 20 20 20 19 19 20 18 17 17 17 17 17 16 18 20 20 19 19 20 19 19 19 18 15 15 17 19 18 17 17 16 15 15 17 15 15 16 15 14 15 16 15 13 12 14 14 15 15 14 13 12 13 16 15 13 12 11 11 10 10 12 15 15 13 12 14 16 16 16 16 14 15 17 17 17 17 16 16 18 18 18 17 16
20 20 20 20 20 20 20 20 19 19 19 18 17 18 17 17 17 17 19 20 19 19 19 20 19 19 19 17 14 16 18 18 18 18 17 16 15 15 17 16 15 15 13 13 16 15 14 15 14 14 15 16 15 14 14 12 13 16 15 12 12 12 11 11 10 12 13 13 12 11 12 14 15 17 17 14 15 17 17 18 17 17 17 17 17 17 16 16
20 20 20 20 20 20 20 19 20 19 19 18 18 18 17 17 17 18 20 20 19 19 19 19 20 20 18 15 15 17 18 16 18 18 16 16 15 15 16 15 15 15 12 14 18 15 13 15 15 14 15 16 15 15 13 12 13 16 14 11 11 10 11 10 10 12 10 11 15 13 12 14 14 16 16 14 16 17 17 17 16 17 17 17 16 16 16 16
20 20 20 20 20 20 19 19 20 19 18 18 18 18 18 17 17 18 20 19 19 19 19 18 20 19 15 15 17 16 16 16 16 16 15 15 15 15 15 14 14 15 13 14 17 14 13 13 12 13 15 15 15 14 12 12 14 14 12 11 10 9 9 9 10 12 10 12 16 14 13 14 14 15 15 15 17 17 17 16 16 16 16 17 17 17 16 16
20 20 20 20 20 20 20 19 19 19 18 18 18 18 17 18 18 20 20 19 19 18 17 18 18 16 14 17 18 15 16 16 14 15 15 14 14 14 14 12 13 15 14 14 15 14 12 11 10 11 13 13 13 12 11 11 12 13 12 13 14 11 10 10 10 11 13 15 16 13 13 13 12 14 15 15 17 16 15 15 15 15 15 16 17 16 15 15
20 19 19 20 20 20 20 19 19 19 18 18 18 17 18 18 18 20 19 17 18 17 16 16 15 14 13 14 16 14 15 16 14 15 14 12 12 13 13 12 12 15 15 14 16 15 13 13 12 12 12 11 12 13 12 9 9 12 13 14 16 15 13 13 13 13 15 16 15 12 13 13 12 15 17 16 16 14 13 14 14 14 16 16 15 14 13 14
19 19 19 19 19 20 20 19 19 19 18 19 17 16 19 20 18 18 17 17 18 16 15 15 14 14 13 13 14 13 14 15 14 13 13 12 11 10 11 11 11 15 16 14 14 15 16 16 13 12 11 10 12 14 14 12 11 13 13 13 15 15 14 14 14 14 14 15 14 12 13 13 12 15 16 16 16 15 13 13 13 13 15 15 14 13 12 14
19 19 20 20 20 20 19 18 19 19 18 18 17 17 20 21 18 15 15 17 17 14 13 13 13 13 13 14 14 13 13 15 14 13 13 13 12 10 10 9 10 14 15 13 13 14 17 16 14 14 13 11 13 15 14 14 14 13 13 13 14 14 13 13 13 12 13 14 14 13 12 13 13 15 16 15 15 15 13 13 12 12 13 12 11 10 10 11
19 20 20 20 20 19 19 19 19 18 18 18 19 20 20 19 16 14 15 15 13 12 12 11 12 14 14 15 14 12 15 15 13 14 14 13 13 12 11 10 10 11 12 13 12 13 15 16 16 16 15 13 13 14 13 13 13 12 12 12 13 14 13 12 12 13 13 13 13 13 13 13 15 15 15 14 14 13 12 12 11 10 10 9 8 8 8 8
20 20 20 20 19 19 19 19 18 18 17 17 18 19 18 17 15 14 15 13 11 12 12 10 13 16 16 15 13 12 14 16 14 14 14 13 13 13 12 11 10 10 11 13 13 12 13 15 16 14 13 12 13 13 12 12 13 11 11 12 13 14 13 12 12 12 12 11 11 12 13 14 15 15 15 14 12 11 10 9 9 8 7 7 7 7 6 6
20 20 20 19 18 18 19 18 17 17 17 18 18 16 14 14 13 13 13 11 10 10 12 13 14 16 16 15 15 14 13 15 15 14 14 13 12 12 11 11 10 9 11 12 12 12 13 15 16 13 13 12 12 12 11 12 14 12 12 13 13 11 12 12 11 11 10 10 11 11 12 13 13 14 13 10 8 7 7 7 7 7 6 6 6 5 5 5
20 20 19 18 18 18 18 18 18 18 18 18 17 14 12 11 11 11 10 10 9 8 11 16 15 15 15 15 16 15 14 14 14 14 15 14 12 12 11 11 10 9 10 10 11 12 11 13 14 13 15 13 9 9 11 10 11 13 14 13 11 10 11 11 10 10 10 10 11 11 12 12 12 12 9 6 5 5 6 6 6 6 6 6 5 5 5 5
20 19 19 18 18 17 18 19 18 17 17 16 14 12 11 11 10 9 9 9 8 9 13 16 15 14 14 15 15 14 13 15 15 14 15 14 14 12 11 11 10 8 8 9 10 11 10 12 14 13 14 13 9 10 13 11 9 11 12 11 11 12 12 11 10 11 10 10 10 11 12 11 9 8 5 4 4 5 5 6 6 6 6 5 5 5 5 5
19 20 19 18 19 18 18 20 18 16 16 15 14 13 12 12 10 8 8 8 8 11 14 14 13 14 13 13 14 13 12 14 14 14 14 14 14 13 10 10 10 9 7 7 10 10 9 11 14 13 11 12 12 13 15 14 11 10 10 11 11 12 12 11 10 10 10 10 9 10 12 10 5 4 3 3 4 4 4 5 5 5 5 5 5 5 5 5
18 20 20 19 19 19 20 20 16 15 16 14 12 13 12 11 10 8 7 8 9 11 13 13 12 14 14 12 12 12 12 13 13 13 14 13 14 14 10 8 10 9 7 6 8 9 10 11 13 13 11 12 14 15 15 14 13 12 12 12 12 12 12 11 10 10 10 10 9 9 10 9 4 3 4 3 4 4 4 4 5 5 5 5 5 5 5 5
17 20 20 19 18 19 20 19 14 11 13 12 11 12 11 11 11 10 7 6 8 10 11 12 12 13 13 13 13 12 12 13 12 13 14 13 14 15 10 7 8 8 7 9 9 9 10 10 10 12 12 13 15 15 13 13 12 12 12 13 12 12 12 10 9 10 10 10 10 9 10 7 3 3 4 3 4 4 4 4 4 5 5 5 5 5 5 5
18 20 19 18 19 19 19 17 11 9 12 12 11 11 10 10 11 11 8 6 8 10 11 11 11 12 12 12 12 11 11 13 13 13 14 13 14 14 10 5 5 6 7 10 9 7 9 9 8 10 11 13 14 13 10 10 11 11 11 11 11 11 11 10 9 10 10 9 9 9 9 6 2 3 4 4 4 4 4 4 4 4 5 5 5 5 5 4
19 19 18 18 20 20 19 17 12 10 11 10 9 9 9 9 11 11 10 9 10 11 12 12 11 11 12 11 11 12 12 13 14 14 14 13 13 11 7 4 4 5 6 9 9 7 8 8 9 11 12 12 13 11 9 8 10 12 11 10 10 11 11 10 9 9 8 8 8 7 8 7 4 4 5 4 4 4 3 4 3 4 4 4 4 4 4 4
17 17 17 18 20 21 21 19 15 13 11 10 11 10 9 9 10 11 11 11 10 11 12 12 11 11 11 10 11 12 12 13 14 13 12 13 12 7 4 3 5 6 7 8 8 7 9 10 10 11 12 12 13 12 11 11 11 12 12 10 10 9 9 8 8 7 7 8 8 7 7 6 5 5 4 3 3 3 3 3 3 3 3 3 4 4 4 4
17 17 17 18 17 17 16 14 14 14 13 13 13 12 11 11 9 9 10 10 9 9 12 12 10 10 10 10 11 11 11 13 14 12 11 12 12 7 4 4 5 6 6 5 4 6 9 10 10 11 11 11 11 12 13 12 11 11 11 9 7 6 5 6 6 6 5 6 7 5 4 4 4 4 3 3 2 2 2 3 3 3 3 3 3 3 4 3
19 19 19 18 16 13 11 10 12 15 14 15 15 12 13 13 10 8 9 10 9 9 11 11 10 10 11 11 12 12 12 12 12 12 12 12 13 10 5 4 4 4 4 3 2 5 8 8 9 10 12 12 12 13 12 11 10 10 8 5 4 4 4 4 4 4 4 4 5 4 2 2 3 3 2 2 2 2 2 2 2 2 3 3 3 3 3 3
19 18 16 18 18 16 14 12 12 14 13 14 14 13 12 14 13 11 10 11 10 9 10 10 9 10 11 11 11 12 12 11 11 12 12 11 11 10 5 3 4 3 3 3 2 5 8 9 8 9 10 11 12 12 11 10 8 7 4 3 3 4 3 3 2 2 3 3 4 4 2 1 2 2 2 1 1 1 1 2 2 2 2 3 3 3 3 3
17 16 13 14 17 17 16 14 12 13 12 12 12 12 13 13 13 12 12 11 11 10 12 12 10 9 9 8 11 12 12 12 12 13 12 10 9 10 8 5 3 2 3 4 3 4 8 10 8 8 8 9 10 9 9 8 7 4 3 3 3 3 3 3 2 2 2 2 3 3 2 1 2 2 1 1 1 1 1 2 2 2 2 2 2 2 2 2
15 15 12 11 14 14 12 11 12 14 13 12 12 12 12 13 12 10 10 11 13 11 11 13 12 10 8 7 9 12 11 12 13 11 10 10 9 9 10 9 5 2 4 6 5 4 7 9 8 6 7 8 9 9 8 8 6 3 2 3 3 3 3 2 3 3 3 2 2 2 1 1 2 2 1 2 2 2 2 2 2 2 2 2 1 2 2 2
16 17 14 14 14 12 11 11 13 16 13 11 13 12 10 12 12 10 8 10 13 12 10 12 12 9 8 8 9 12 11 11 12 10 9 9 8 8 9 9 7 5 5 7 6 5 8 9 7 6 8 9 10 10 9 8 6 2 2 3 2 2 2 1 2 3 2 2 2 1 1 1 2 2 2 2 2 2 2 2 2 1 1 1 1 1 1 1
15 14 15 17 15 12 12 12 12 15 14 11 12 12 11 11 11 10 10 9 10 12 10 10 10 8 8 8 9 11 11 9 10 9 8 8 8 8 8 6 4 4 5 5 5 6 7 8 7 7 8 9 10 10 9 8 5 2 1 1 1 1 1 1 1 2 2 1 1 0 -0 0 1 2 2 2 2 1 1 1 1 1 1 1 1 1 1 1
15 14 13 17 16 11 11 12 11 14 14 10 10 10 10 11 8 9 12 10 8 9 9 8 8 9 10 12 12 10 8 7 7 6 5 5 4 4 4 3 2 3 4 4 4 5 5 6 6 7 7 8 10 9 8 7 7 4 1 1 1 1 1 1 1 2 2 1 -0 -0 0 0 1 1 1 1 1 1 1 1 1 1 1 1 1 1 1 1
Height
809 808 808 808 807 807 807 807 806 806 806 806 806 806 805 805 804 804 803 802 802 801 801 801 800 800 799 798 799 799 798 798 798 797 797 798 797 796 795 794 793 792 791 790 789 787 786 786 785 785 784 784 787 787 787 787 789 791 797 804 803 803 800 793 791 791 791 789 788 789 790 790 786 785 784 783 783 781 781 780 779 777 774 774 773 772 772 773
808 808 808 807 807 807 807 807 807 806 806 806 806 806 806 805 804 804 803 803 802 801 801 800 800 799 798 798 799 798 798 798 798 798 798 798 797 796 795 794 793 792 791 790 789 789 788 788 787 787 787 787 788 788 788 789 789 792 800 805 801 798 794 790 790 789 790 789 788 789 789 789 786 784 784 783 782 782 782 779 779 777 773 771 772 772 771 771
808 807 807 807 807 807 807 807 807 806 806 806 806 806 805 805 804 804 803 803 802 801 801 800 799 798 797 798 798 799 799 799 799 799 799 798 797 796 795 794 793 792 791 790 790 790 790 789 789 789 790 790 790 790 789 789 791 793 799 803 796 793 792 790 791 790 790 790 789 788 788 789 786 784 785 784 782 782 781 777 777 776 770 768 770 770 770 770
807 807 807 807 807 807 807 807 806 806 806 806 806 805 805 804 804 803 802 802 801 801 801 800 799 797 797 797 798 799 799 800 801 801 799 798 797 796 795 794 793 792 792 791 790 790 790 790 790 790 791 791 791 791 791 791 792 794 797 797 792 794 793 789 790 790 790 791 790 788 789 788 785 784 784 783 784 780 775 771 771 769 764 765 768 768 768 768
807 807 807 807 807 807 807 807 806 806 806 806 806 805 805 804 803 803 802 802 801 801 801 800 799 798 798 798 799 799 800 804 804 800 799 798 797 796 795 794 793 793 792 791 791 790 790 789 789 790 792 793 792 791 793 792 793 794 794 793 792 794 792 788 790 790 789 791 790 788 788 785 783 783 781 782 783 772 763 763 764 763 761 762 764 765 766 766
806 807 807 807 807 807 807 807 806 806 806 806 805 805 805 804 804 803 802 802 802 802 801 801 800 800 799 799 800 799 802 807 804 800 800 798 797 796 795 794 794 793 792 792 791 791 790 791 791 792 794 794 795 794 795 794 794 795 794 793 793 793 791 788 789 789 789 790 789 787 785 784 783 781 779 780 775 762 756 759 761 760 759 759 761 764 765 764
807 807 807 807 807 807 807 807 807 806 806 806 805 805 805 804 804 803 803 803 802 802 802 802 801 801 801 801 801 801 804 805 802 801 800 798 797 796 795 795 795 794 793 792 791 791 792 792 792 794 795 795 797 796 796 796 795 796 795 793 792 792 791 788 788 787 788 788 786 786 785 784 783 780 780 775 766 759 758 759 760 759 758 758 760 761 761 761
807 807 807 807 807 807 807 807 807 806 806 805 805 805 804 804 803 802 803 803 803 803 803 803 803 802 801 801 802 804 805 804 802 801 800 799 798 797 796 795 795 794 793 791 791 792 792 793 793 795 796 797 797 796 797 796 795 796 795 794 792 791 789 788 788 787 787 787 786 786 785 783 783 782 780 770 759 757 758 758 759 758 758 758 758 757 758 759
807 807 807 807 807 807 807 807 806 806 806 805 805 805 804 804 802 802 802 803 803 804 804 803 803 802 801 801 802 806 807 804 802 801 800 799 798 798 796 795 794 793 792 792 792 791 792 794 793 794 795 796 796 796 798 796 796 797 796 795 794 792 790 789 788 787 787 786 786 785 783 782 783 782 775 761 755 754 755 756 755 756 756 755 754 754 754 755
807 807 807 807 807 807 807 807 806 806 805 805 805 805 804 804 803 802 803 804 804 804 804 804 804 803 802 801 803 808 807 803 803 802 801 800 798 798 796 795 794 793 792 792 792 791 792 793 792 793 793 795 796 798 799 798 798 798 797 796 794 794 792 789 786 786 788 786 785 785 783 781 782 784 773 755 751 754 754 753 752 754 753 750 750 749 750 751
807 807 807 807 807 807 807 806 806 806 806 805 805 805 805 805 804 804 804 804 804 804 804 804 804 803 802 802 806 809 805 803 803 801 801 799 798 797 796 796 795 793 793 792 792 792 792 792 792 792 793 795 796 798 799 798 798 798 798 795 793 793 790 788 787 786 788 785 783 785 782 781 783 783 770 753 750 755 756 753 751 752 750 747 747 745 746 746
807 807 807 807 807 807 807 806 806 806 806 806 806 805 805 805 805 805 805 805 805 805 805 804 804 804 803 803 806 807 804 803 802 801 801 799 798 797 796 796 795 794 793 793 793 792 792 791 790 792 795 796 797 799 798 799 799 797 799 796 792 791 786 787 788 786 788 785 783 784 780 779 780 773 759 752 754 758 758 753 749 748 748 746 745 743 743 742
807 807 807 807 807 807 807 807 806 806 806 806 806 805 805 805 805 806 806 806 805 805 805 804 804 803 804 806 807 805 804 803 802 801 800 798 798 797 797 796 795 794 794 793 793 792 792 791 791 793 795 796 798 799 798 800 799 797 801 800 797 794 787 786 790 789 788 786 783 785 785 778 771 763 755 755 758 758 755 750 748 746 745 745 743 742 741 739
807 807 807 807 807 807 807 807 807 807 806 806 806 805 805 805 805 806 806 806 806 806 805 805 805 803 805 807 806 804 804 803 802 801 800 798 798 796 796 795 794 794 793 793 792 792 792 791 791 793 796 799 799 798 799 802 799 800 802 803 810 807 791 786 793 792 787 787 783 786 794 783 766 758 755 757 758 757 754 747 746 744 743 742 741 740 738 736
807 807 807 807 807 807 807 807 807 807 806 806 806 805 806 805 805 805 806 806 806 806 806 805 805 804 806 807 805 804 804 802 802 801 800 799 797 796 795 794 794 793 792 793 792 793 792 792 793 796 799 799 800 802 804 803 803 808 805 804 814 813 801 793 793 793 788 788 786 788 795 786 770 758 752 756 757 757 755 747 744 742 740 739 737 737 735 733
807 807 807 808 808 807 808 807 807 807 807 807 806 806 806 806 806 806 806 806 806 806 805 805 805 804 808 809 805 804 804 803 802 802 801 800 798 796 795 793 793 792 792 792 792 793 792 792 797 802 803 802 808 812 807 805 809 816 817 812 811 811 811 801 791 793 793 790 789 790 793 785 773 760 751 752 755 756 755 748 743 739 737 736 734 733 732 730
807 807 808 808 808 808 808 808 808 808 808 808 807 807 807 806 806 806 806 806 806 806 805 806 804 804 808 808 807 806 805 804 803 802 801 799 797 796 795 794 793 792 792 791 791 793 793 796 802 805 809 813 820 816 807 813 817 818 823 819 816 817 818 807 793 794 796 792 792 792 792 785 774 765 759 753 752 754 752 747 744 739 736 734 732 731 729 729
807 807 808 808 808 808 808 809 809 808 808 808 808 808 807 807 807 806 807 806 806 806 806 806 804 810 814 809 810 810 806 805 804 803 801 798 797 796 796 795 794 793 793 792 793 795 795 800 805 806 813 820 823 817 812 822 824 821 824 821 820 821 817 811 800 796 797 795 794 794 790 783 774 768 763 755 753 754 749 746 743 739 737 733 731 729 727 727
807 808 808 808 809 808 809 809 809 809 809 809 809 808 808 808 807 807 807 807 808 811 814 813 811 817 820 813 812 810 806 806 804 803 801 798 796 795 796 795 795 794 796 797 797 799 802 804 810 814 819 823 825 825 822 823 824 823 826 825 825 823 814 808 802 799 803 797 790 790 787 781 776 770 762 755 754 753 747 743 740 738 736 733 731 728 726 726
807 808 808 809 809 809 810 810 810 810 809 809 809 809 809 811 812 813 812 810 814 816 818 818 816 818 818 815 813 809 807 806 805 804 801 797 796 795 795 795 796 798 803 807 805 807 809 812 821 825 827 827 827 829 827 826 827 826 826 824 823 823 814 805 801 801 804 799 789 789 789 784 778 769 763 760 755 751 747 743 740 738 736 734 733 729 727 726
807 808 809 809 809 810 810 810 810 810 810 810 809 809 813 815 816 818 817 816 817 817 817 818 817 817 816 816 814 811 809 806 804 803 801 799 796 796 799 800 801 804 810 814 811 811 811 817 827 828 829 829 827 829 830 828 827 824 824 821 817 819 813 803 802 801 804 804 793 790 790 781 773 766 762 761 755 749 751 749 743 740 739 737 735 733 730 729
808 808 809 809 809 810 811 811 811 811 811 810 809 811 814 815 816 816 817 819 819 818 818 818 817 817 816 815 814 813 812 809 806 804 803 801 798 800 807 808 809 813 816 814 811 811 814 821 827 828 831 830 826 829 828 825 824 823 823 820 815 816 811 803 800 800 804 804 792 789 791 780 772 768 760 759 757 751 753 754 748 744 741 739 737 736 734 732
808 809 809 810 810 811 811 811 811 812 811 811 811 812 815 815 816 815 816 819 820 819 819 818 818 818 816 815 815 813 814 816 816 811 807 805 805 808 811 812 815 818 819 815 812 816 820 823 827 830 832 827 822 823 824 822 822 824 821 817 815 816 816 807 799 801 804 804 797 792 789 779 771 766 756 756 759 753 752 752 750 748 743 740 739 738 736 733
808 809 810 810 811 812 812 812 812 812 812 813 813 813 815 816 816 816 817 820 821 819 819 819 818 819 819 818 817 816 818 821 822 816 812 811 810 811 812 815 816 816 822 822 817 819 824 826 829 830 829 825 820 821 823 820 819 821 818 816 814 814 820 816 810 810 803 801 803 794 782 770 766 767 758 756 757 752 751 751 748 747 745 742 740 738 737 735
809 809 811 811 812 812 812 813 812 813 814 814 814 815 816 816 816 816 817 821 824 821 819 819 819 820 821 820 819 819 820 821 822 819 816 815 813 813 814 817 817 817 824 826 819 819 824 829 830 825 824 824 819 819 824 823 820 817 812 813 815 815 820 821 820 814 796 790 798 797 788 770 762 768 765 762 759 751 752 754 750 747 744 739 737 736 736 735
810 810 812 812 812 813 813 813 813 814 814 815 816 816 816 816 816 816 817 826 833 829 823 821 822 823 821 822 821 820 823 822 821 820 817 816 815 814 815 820 822 820 823 825 822 822 825 829 830 826 823 821 818 819 824 826 823 813 807 813 816 818 819 818 820 810 793 792 799 801 797 782 770 764 763 767 763 754 753 753 750 750 745 739 737 735 735 735
810 811 812 812 813 813 813 814 814 815 815 816 816 815 816 816 815 815 819 834 842 835 829 826 826 826 824 826 824 822 829 829 820 820 819 817 816 814 817 823 824 823 828 827 821 825 826 824 826 826 821 817 818 820 820 825 823 808 806 813 814 814 814 816 819 810 804 803 801 803 801 792 781 763 757 766 762 754 753 750 750 750 747 744 741 739 738 736
810 811 812 813 814 813 814 814 814 815 815 816 816 815 816 815 815 816 822 844 850 836 834 833 827 827 828 828 827 826 832 832 826 825 822 819 818 816 820 827 827 826 830 825 819 827 829 823 824 824 820 819 818 818 820 825 820 807 809 816 817 817 815 818 817 810 816 809 790 796 800 794 786 767 761 767 760 754 752 751 752 749 747 746 743 742 739 737
811 812 813 814 815 814 815 814 814 815 815 815 815 815 815 814 816 818 826 848 850 837 838 836 828 832 835 831 830 833 833 831 833 831 824 822 820 819 824 828 829 828 829 826 823 829 830 828 832 828 823 822 818 818 822 823 817 812 815 816 816 822 820 820 817 809 815 805 785 792 797 794 790 772 766 767 758 755 755 754 754 751 749 747 743 742 739 739
812 813 814 815 815 815 815 814 815 815 814 815 814 814 815 815 818 825 840 853 849 844 844 839 838 845 845 836 833 838 837 836 840 835 830 832 827 823 826 829 829 827 829 829 825 829 833 833 835 831 826 825 821 821 824 824 820 815 815 809 803 812 816 817 820 813 805 791 785 795 796 797 798 776 764 765 757 758 761 758 755 752 750 747 744 744 742 741
813 814 815 815 816 815 815 814 814 814 814 814 814 814 814 820 827 839 855 857 850 852 850 847 851 852 852 851 846 845 842 840 842 839 836 839 837 831 828 833 835 826 826 829 823 826 830 828 830 830 828 830 825 820 821 827 828 818 814 809 799 801 805 805 807 805 798 786 788 801 797 797 800 777 759 760 758 762 767 763 759 755 750 748 747 747 746 743
815 816 816 816 816 815 814 814 814 813 813 813 813 814 815 825 841 857 864 855 853 861 861 858 858 854 857 859 855 853 850 845 845 845 846 846 847 848 846 852 851 834 831 840 835 828 822 821 829 829 828 832 825 817 816 819 820 816 814 814 809 809 809 805 803 804 802 790 787 798 797 792 792 773 758 759 757 761 766 764 763 760 755 752 751 751 750 746
817 817 817 817 816 815 814 814 813 812 813 812 814 817 820 832 854 873 871 860 861 869 869 867 863 861 861 856 855 858 854 850 848 846 849 849 852 857 858 863 861 846 843 850 848 838 823 819 825 822 823 829 824 820 820 816 815 818 820 819 818 821 824 820 817 818 811 793 783 794 799 791 781 766 760 762 760 760 764 766 768 768 766 765 764 765 765 760
817 817 817 816 815 815 814 812 812 812 812 812 814 817 826 846 867 876 872 869 873 873 872 874 867 861 860 856 860 862 852 850 852 848 847 849 850 853 856 860 860 857 853 852 853 850 838 827 821 817 820 825 824 823 825 824 822 825 828 827 822 820 827 828 821 815 809 799 791 792 792 783 770 760 760 762 763 767 772 775 778 779 779 779 778 778 778 775
817 817 817 816 815 814 813 812 811 810 810 812 820 830 843 863 876 875 873 877 880 876 874 877 868 857 856 859 862 863 856 850 851 851 850 853 855 855 858 860 861 863 857 851 853 856 851 837 823 822 827 827 824 825 829 827 823 829 832 827 821 819 821 824 822 818 818 817 806 793 782 774 766 760 761 767 773 780 785 785 786 789 789 787 785 785 784 782
817 817 816 816 816 814 813 812 809 811 811 810 825 850 866 875 878 877 879 880 883 883 876 869 866 860 859 860 858 860 860 853 851 851 850 857 861 860 862 863 865 867 860 857 858 857 853 837 823 825 826 826 828 828 830 828 822 826 829 821 823 828 824 823 825 826 829 826 812 795 783 777 774 769 772 784 793 795 795 794 794 796 795 792 790 790 788 785
816 817 817 817 817 814 814 812 810 811 811 812 833 865 881 882 882 884 885 884 888 890 877 863 864 867 867 864 858 859 859 854 854 854 851 857 859 859 862 863 866 869 866 866 863 860 859 845 830 828 821 823 836 833 829 833 829 823 822 821 827 831 826 829 833 828 828 826 810 796 789 785 785 788 797 809 812 808 805 802 800 798 796 795 795 794 792 789
817 817 818 819 819 817 814 813 814 812 810 825 854 875 881 881 884 888 888 887 889 885 873 865 868 870 872 868 862 864 864 856 855 858 857 857 857 860 864 863 865 870 872 871 864 863 867 852 833 831 828 827 835 832 823 829 835 830 827 828 829 827 824 832 836 828 829 829 814 798 789 793 807 818 829 833 826 820 814 808 804 801 799 799 797 794 791 788
818 818 821 823 821 820 817 814 816 813 815 841 866 874 877 881 884 888 887 887 888 880 870 871 874 871 873 874 869 870 870 864 862 862 860 859 857 860 866 866 865 868 873 873 867 865 868 859 838 831 836 832 827 824 819 821 830 832 831 831 830 829 826 828 830 826 827 827 820 808 794 806 837 847 843 840 833 828 822 813 810 806 803 801 797 794 790 786
819 821 824 825 821 822 820 813 816 821 833 857 872 873 878 881 881 886 888 887 886 879 873 876 878 873 873 877 876 876 875 871 870 866 862 864 860 856 866 872 867 868 874 874 871 868 866 864 847 830 834 833 824 821 821 821 825 827 828 827 827 826 824 827 828 823 824 820 821 820 804 814 850 852 839 840 836 829 826 819 815 810 805 802 797 794 790 786
820 824 828 824 820 821 818 818 834 850 857 868 874 876 880 881 879 884 891 892 888 883 880 880 881 878 877 877 877 879 877 872 872 868 863 865 861 856 865 875 872 871 873 867 868 870 865 865 859 844 837 830 820 819 822 824 826 827 827 824 824 825 825 832 830 820 821 819 817 820 809 819 849 846 835 839 835 829 827 821 817 811 805 802 797 794 791 787
823 831 832 827 822 819 818 834 861 870 867 871 876 879 882 883 882 883 888 892 889 885 883 882 883 883 882 880 879 881 878 872 870 867 864 865 862 858 867 878 880 879 875 866 869 875 870 871 870 855 840 831 823 823 829 832 830 829 830 828 829 830 828 834 833 823 822 819 816 819 813 823 845 840 833 837 833 830 827 821 817 811 803 801 796 793 790 786
830 834 833 829 827 821 823 846 869 872 873 881 883 884 886 886 884 883 885 888 886 884 881 881 883 883 882 884 882 880 878 872 868 865 864 866 864 864 873 882 882 881 877 870 871 876 873 872 868 850 836 828 821 824 832 835 831 826 828 831 832 831 829 832 833 831 831 823 821 825 815 815 830 830 828 832 828 825 823 818 816 809 802 800 796 791 788 784
834 835 833 830 825 821 827 847 863 870 878 882 880 883 887 888 886 884 885 887 887 886 882 882 885 884 884 888 885 881 879 873 868 869 870 867 866 873 882 884 879 877 876 871 872 874 868 863 862 854 843 831 821 821 824 825 827 825 823 831 838 840 842 841 838 841 840 825 821 828 821 816 823 825 825 826 824 821 818 814 812 808 803 800 796 792 787 783
834 836 837 834 828 829 843 857 862 867 876 877 877 882 884 885 890 891 888 889 892 891 885 884 888 887 887 888 884 882 882 876 871 872 874 870 865 873 883 883 880 879 879 881 883 879 869 864 863 857 854 850 842 835 827 825 830 827 826 840 854 857 859 854 847 848 847 835 830 838 842 836 830 828 829 830 828 825 819 813 809 806 802 799 796 791 785 782
835 839 844 843 841 846 859 870 868 866 872 872 874 883 883 881 889 895 892 889 891 892 888 887 889 887 886 886 883 881 881 881 880 876 874 869 862 868 881 884 883 883 884 887 887 882 875 872 867 857 851 849 843 835 833 837 840 839 847 861 866 865 866 865 861 860 861 855 844 844 854 850 837 833 836 836 834 830 823 817 811 806 802 798 795 789 784 781
838 848 854 851 850 855 863 871 872 870 874 874 876 884 886 883 886 889 888 889 890 891 889 889 891 888 887 888 885 882 880 881 882 877 873 874 869 870 880 886 886 886 886 889 888 883 874 865 862 860 851 843 840 837 840 846 851 859 871 876 871 869 869 870 873 873 869 862 848 843 853 854 843 840 841 839 836 831 825 819 813 808 803 799 794 790 785 781
842 854 862 857 857 864 866 871 876 875 876 879 883 888 887 886 888 888 888 889 890 890 886 885 890 894 897 898 890 884 882 878 875 872 873 878 877 872 874 882 890 890 887 887 888 885 874 861 861 865 858 851 850 848 848 852 860 873 880 877 874 874 872 873 875 873 869 865 855 850 855 854 846 843 842 838 834 829 823 818 812 807 803 800 796 791 785 782
848 854 863 861 863 873 877 879 878 875 877 881 884 890 890 888 892 896 897 892 886 890 890 884 888 895 900 902 895 887 886 882 877 878 880 881 881 878 872 872 883 891 887 882 884 887 877 865 867 870 861 852 849 849 849 851 861 877 882 879 879 878 875 875 872 867 866 863 857 855 857 853 847 844 841 835 830 826 820 814 810 806 802 799 795 789 784 781
846 850 858 860 866 877 880 881 877 872 879 885 885 891 896 893 892 897 901 896 887 890 895 890 890 896 898 900 896 886 886 886 881 883 888 887 885 884 878 874 880 887 885 881 883 884 875 866 870 871 859 844 838 841 844 848 863 881 884 881 881 877 875 877 872 866 866 863 857 858 858 851 843 839 835 829 825 821 815 810 806 803 800 796 791 786 783 779
844 848 851 853 866 879 878 880 882 875 880 890 889 893 896 894 896 897 898 900 896 892 895 895 894 897 898 897 892 885 885 889 886 886 889 889 887 884 881 884 890 890 887 886 886 883 879 874 873 873 864 847 836 836 841 848 862 879 886 885 884 881 880 880 875 868 866 864 861 860 860 852 841 836 832 828 825 821 814 809 805 800 797 793 788 783 779 775
845 849 849 849 866 884 884 884 885 878 884 897 898 897 896 895 902 901 892 896 902 897 898 900 899 896 891 885 883 884 888 891 889 889 891 891 892 891 890 893 898 897 895 894 891 889 889 885 879 879 872 852 839 841 847 846 850 868 887 893 888 885 883 879 875 869 862 863 865 863 858 849 839 834 831 826 823 820 814 808 803 799 795 789 785 780 775 771
Wind_Speed
4 3 2 1 1 2 3 3 3 3 4 4 4 5 6 6 8 9 10 11 12 13 13 12 11 9 8 6 4 3 4 6 8 11 11 10 14 12 11 12 11 12 10 10 10 9 9 8 9 14 12 5 1 1 1 0 3 3 3 2 4 3 4 5 5 4 3 3 5 4 4 7 5 3 1 2 2 5 5 5 4 5 7 6 5 5 5 15
2 1 0 1 2 3 3 3 3 3 3 4 5 5 7 8 10 10 10 11 10 11 10 10 11 8 8 6 4 4 6 7 6 6 10 14 15 13 12 12 11 12 11 10 10 9 6 6 9 11 7 3 2 0 0 1 2 2 3 1 4 5 5 5 5 4 2 3 5 5 4 6 6 4 1 3 6 5 6 7 4 7 11 9 6 4 11 20
1 1 2 3 3 3 2 2 2 2 3 4 6 7 9 9 10 10 9 10 9 8 8 11 12 8 6 6 5 4 5 4 3 4 11 16 15 14 14 12 11 12 12 11 11 10 6 7 8 6 3 2 3 1 1 1 1 1 3 2 6 5 4 4 4 4 4 4 3 6 4 4 6 3 2 4 7 6 8 9 6 9 14 11 6 7 14 21
2 2 2 3 2 2 2 2 2 3 4 6 7 8 9 9 8 9 9 9 7 6 8 11 13 9 2 4 3 3 3 4 2 5 12 16 16 16 14 12 12 12 12 11 11 11 9 9 5 2 2 3 4 2 1 1 1 1 3 4 6 3 3 5 5 4 5 3 3 4 2 4 5 3 3 3 4 8 10 11 11 14 16 13 8 9 13 17
3 3 2 2 2 2 1 1 3 4 6 7 7 8 7 7 8 10 10 6 4 5 8 11 13 11 4 1 1 1 3 4 4 8 13 15 16 16 13 12 11 11 11 11 11 10 8 6 4 4 3 2 4 3 1 2 1 1 3 5 5 2 3 6 5 4 3 2 3 3 2 5 3 2 5 6 6 10 8 9 13 15 14 12 10 10 11 12
3 2 2 2 2 1 1 2 4 5 6 7 6 6 5 6 7 10 9 4 2 5 8 10 12 11 8 6 4 2 4 2 6 11 13 15 16 15 12 10 9 9 10 11 11 9 7 6 5 2 2 2 3 1 4 4 2 2 4 3 4 3 3 5 3 3 3 1 3 3 4 3 2 4 5 8 13 15 9 6 11 13 14 14 10 9 10 12
3 3 3 3 2 1 2 3 4 5 6 6 4 4 4 6 8 9 8 3 2 4 7 10 10 9 7 6 5 4 5 0 8 12 13 15 15 14 12 8 7 9 10 11 10 6 4 6 4 1 1 3 3 1 3 5 3 2 4 4 4 4 5 5 4 4 3 4 6 3 4 3 3 6 2 7 16 16 12 6 7 10 11 12 8 9 12 14
3 3 3 2 1 2 3 4 4 5 5 4 2 3 5 8 11 9 5 2 2 4 7 9 10 9 7 4 2 4 3 3 9 11 12 14 14 13 11 8 8 9 10 10 7 3 1 4 2 1 1 3 3 1 2 5 4 2 4 4 4 3 5 6 5 5 5 6 5 3 6 6 6 4 4 13 19 15 12 9 8 9 8 8 9 11 12 12
4 4 3 2 2 3 3 4 5 5 4 2 2 4 6 10 11 6 2 1 0 2 7 8 9 10 7 2 4 4 3 5 9 10 11 13 12 12 11 11 11 11 10 8 5 1 0 1 1 0 1 3 2 0 3 4 3 2 3 4 5 6 7 6 6 6 6 4 2 3 8 7 5 4 6 15 18 13 8 8 10 9 9 10 10 11 11 12
4 3 2 2 3 3 3 5 5 3 2 2 3 4 7 10 11 7 5 2 1 3 6 6 8 11 7 3 6 4 4 5 9 10 10 12 12 10 11 14 15 14 9 5 6 4 1 2 3 2 3 1 1 1 1 1 2 3 3 5 6 8 7 4 6 6 3 4 3 4 9 8 5 2 5 13 12 6 5 8 8 7 11 13 12 11 11 11
3 2 2 3 3 3 4 5 4 3 2 2 3 4 6 8 9 9 6 2 2 3 4 5 8 9 8 7 6 2 4 6 9 11 10 11 12 10 10 12 13 15 10 4 5 4 2 3 4 1 1 0 1 1 2 1 1 2 3 6 7 7 7 4 5 6 3 3 3 5 8 7 3 1 8 15 11 5 7 11 10 7 10 12 12 12 10 10
2 2 3 3 3 4 5 4 3 2 2 3 3 5 6 7 6 5 6 5 3 3 4 6 9 6 6 7 5 1 5 7 9 11 10 10 12 9 7 11 12 12 10 5 5 6 5 4 1 3 1 1 1 2 1 1 1 2 3 5 9 9 7 5 4 4 1 2 2 3 6 6 2 7 13 14 10 7 8 11 12 10 9 10 11 10 8 10
2 3 3 3 3 4 4 3 3 3 3 4 5 6 6 6 5 4 4 4 2 3 6 7 9 6 4 4 1 4 7 9 11 12 11 10 10 7 5 9 11 9 7 5 5 7 8 5 6 5 1 3 1 2 1 2 2 3 3 3 6 9 6 5 4 4 1 1 1 2 4 8 8 12 13 11 8 7 9 11 11 10 9 9 9 8 9 10
2 2 2 2 3 3 3 3 3 3 4 5 6 5 4 4 4 3 3 4 2 3 6 7 8 5 4 0 2 6 10 10 12 13 13 12 12 10 7 9 10 6 5 4 3 5 7 6 6 5 2 4 1 2 3 5 4 3 3 3 3 5 6 9 6 4 3 2 3 5 1 9 14 17 12 7 6 7 11 15 13 11 9 8 8 8 9 9
2 1 1 2 3 2 2 3 3 4 5 5 5 6 6 7 5 4 3 3 2 3 5 7 6 2 3 1 2 8 11 10 13 14 15 15 13 11 11 13 9 3 3 4 3 3 5 4 6 4 2 3 4 4 4 4 4 4 4 4 4 2 6 11 7 2 3 4 4 5 3 8 13 19 15 6 5 7 13 17 15 12 11 9 8 8 9 9
3 2 1 2 1 2 2 3 4 5 6 6 7 7 5 5 4 3 2 1 1 4 5 6 6 3 4 1 4 8 8 8 12 13 15 17 12 9 11 14 7 2 7 7 5 4 4 5 4 3 2 5 6 4 4 4 4 4 4 3 5 3 5 9 6 1 2 4 3 1 3 6 10 17 20 15 10 8 10 14 15 13 11 9 8 7 8 8
3 2 1 1 2 3 3 4 5 6 7 8 9 8 7 6 5 1 1 2 1 4 5 6 5 3 3 2 4 6 7 10 12 13 20 21 9 7 9 8 4 6 11 7 1 2 3 5 2 1 4 5 3 2 5 5 5 4 3 2 4 4 4 6 6 6 6 3 3 2 4 9 13 15 19 19 14 10 9 11 12 11 10 8 7 7 7 7
3 1 0 2 3 4 5 5 6 8 8 8 10 12 12 13 12 7 1 3 3 4 4 6 5 4 2 5 3 8 12 14 13 13 24 22 7 5 7 4 3 7 8 5 4 4 3 4 2 2 4 5 4 6 6 2 2 3 4 3 4 4 4 5 7 5 8 6 4 3 5 11 15 15 15 16 12 10 10 9 8 8 9 9 7 7 7 6
2 1 2 4 5 5 6 6 7 8 7 7 7 5 6 8 10 13 12 6 2 2 1 3 4 4 2 5 7 13 14 12 9 10 23 23 9 5 4 2 2 5 6 4 4 5 3 4 5 4 5 5 4 3 3 3 5 5 5 2 4 5 5 7 7 4 6 8 7 4 7 11 14 15 14 14 11 9 10 9 7 7 7 7 7 7 7 6
3 2 4 5 6 6 6 5 5 5 5 4 1 2 4 3 4 6 10 10 4 3 3 1 1 2 2 4 9 15 10 5 4 10 25 25 10 4 5 5 5 7 6 3 4 3 5 5 5 2 4 6 6 4 3 3 4 4 2 2 5 5 6 8 7 5 5 6 6 4 6 11 13 14 11 11 11 8 9 11 9 8 7 7 7 7 7 6
4 5 6 7 8 8 6 5 3 2 2 3 3 3 1 2 4 1 2 4 1 1 3 2 1 1 3 4 9 12 4 2 6 14 29 25 8 4 6 6 7 6 6 3 2 3 6 7 4 5 7 7 6 4 2 1 2 1 2 3 6 4 7 10 6 5 6 5 5 3 7 13 12 12 10 8 8 8 8 9 8 8 7 7 8 8 7 5
6 6 8 9 10 9 6 4 2 1 2 5 8 8 4 4 4 3 2 3 2 2 3 3 2 2 4 2 8 8 2 7 11 15 28 25 10 5 4 5 6 2 7 4 3 5 6 5 5 8 5 4 4 2 2 1 1 1 2 2 5 4 6 9 5 5 7 2 4 7 8 12 12 11 10 5 5 6 6 6 7 6 4 6 7 6 7 6
6 7 9 12 12 9 5 3 2 3 4 8 11 10 7 4 2 2 3 4 0 2 3 3 4 4 5 3 11 12 6 7 7 11 23 19 7 3 3 5 5 1 6 6 6 5 4 3 5 5 2 3 4 5 5 3 2 1 1 2 5 4 3 5 3 8 11 3 4 7 7 8 8 8 8 4 4 6 6 7 6 3 2 4 3 2 4 6
7 7 11 14 12 7 5 3 3 5 6 8 11 10 8 4 2 3 2 2 1 1 1 1 2 3 4 4 12 10 4 2 2 8 17 12 5 2 4 3 4 4 6 4 7 8 2 4 4 3 6 4 2 5 6 5 6 3 2 0 5 6 2 4 5 9 10 3 1 6 7 6 4 7 7 6 6 7 7 8 7 5 3 2 2 2 2 1
7 9 14 15 10 7 6 4 4 8 8 8 10 9 8 5 3 3 3 3 4 3 3 2 2 5 4 5 12 6 2 3 2 5 11 10 5 2 3 1 4 6 6 1 7 6 1 3 2 4 5 5 4 3 4 3 5 5 3 4 5 6 5 6 7 7 6 4 3 6 5 5 5 5 6 6 8 9 7 7 7 6 4 2 3 1 3 5
9 11 16 14 7 5 3 2 4 7 5 3 5 5 4 3 5 3 3 5 4 4 6 5 2 9 9 7 10 4 4 4 4 6 12 12 5 2 3 3 2 5 3 2 4 2 2 4 3 3 3 6 6 3 0 2 5 5 3 4 4 5 6 6 5 3 2 3 4 4 4 5 7 6 6 4 7 9 7 7 7 7 5 2 3 5 4 5
11 12 16 15 8 1 2 1 5 4 2 0 2 2 2 1 4 3 2 5 4 2 5 5 3 8 10 9 9 3 3 6 5 9 14 14 8 2 5 4 2 4 2 3 4 1 2 6 7 5 5 6 6 3 2 3 4 4 4 1 5 8 7 6 1 1 2 3 5 3 3 2 5 7 8 6 7 8 7 7 8 7 8 7 6 6 5 6
12 11 14 14 10 4 3 3 5 3 1 1 2 1 2 1 3 2 5 5 3 2 2 4 5 7 8 9 10 6 1 5 3 8 15 17 11 2 5 4 2 3 4 6 3 3 2 4 5 4 5 5 3 4 4 3 1 7 6 3 7 6 5 3 3 3 2 2 4 5 1 1 5 8 8 7 5 7 8 8 9 8 9 9 9 9 7 7
11 10 11 12 9 4 2 4 3 2 1 3 4 3 2 1 1 3 6 4 2 3 0 3 6 7 9 8 8 6 3 4 3 6 14 17 16 7 4 2 4 1 6 6 5 4 2 1 2 2 4 2 5 7 4 5 3 7 5 5 4 1 0 1 3 1 2 3 2 5 1 2 5 8 7 5 3 6 8 7 8 9 9 8 9 10 8 7
11 11 11 10 6 1 1 2 2 2 2 4 4 2 2 2 4 6 6 2 1 3 2 3 4 4 8 8 7 6 5 4 3 5 7 7 13 10 4 1 4 5 5 5 4 2 4 2 1 2 1 2 5 6 4 6 5 5 6 5 4 4 3 2 2 3 4 2 5 6 2 3 3 7 5 3 2 4 5 8 10 10 10 9 8 9 8 7
10 10 8 5 1 4 2 1 5 5 4 4 3 2 2 3 5 7 4 1 1 4 4 5 4 4 8 6 5 7 5 5 5 6 6 4 8 9 6 5 4 5 6 6 6 7 5 2 1 2 3 1 3 5 2 1 2 4 5 4 5 5 4 4 5 4 3 5 6 5 1 3 3 6 5 6 7 4 2 7 11 13 11 10 9 8 8 7
9 8 4 1 3 6 5 3 6 6 4 4 2 3 4 4 5 3 1 3 2 3 3 3 4 5 6 4 5 7 4 5 5 5 4 4 6 7 6 6 3 5 6 5 7 8 4 1 3 5 2 1 2 4 5 4 4 6 5 5 6 5 5 5 4 3 1 7 6 2 1 1 5 8 8 9 10 7 4 6 9 10 10 11 12 11 10 9
8 5 2 4 6 8 9 6 6 5 4 2 3 5 6 6 4 1 4 3 2 2 2 2 5 5 5 4 6 7 3 3 6 5 3 2 5 4 4 4 4 4 2 1 4 6 5 5 5 5 2 1 3 3 5 4 4 6 3 3 3 2 4 4 4 3 4 9 6 3 2 3 5 6 8 8 9 8 7 7 7 7 10 13 14 14 15 14
7 4 4 7 9 11 11 8 7 5 2 3 5 6 9 7 1 1 3 3 2 4 2 2 5 6 5 4 3 5 3 3 5 5 5 4 5 4 5 5 6 4 2 1 2 2 4 6 4 2 2 2 2 1 1 2 3 4 2 3 1 2 1 4 4 3 5 9 9 0 3 4 4 4 4 4 6 8 10 10 11 14 16 16 16 17 18 18
9 9 10 13 14 14 13 9 7 2 3 7 8 7 8 4 3 1 2 4 2 4 4 3 4 5 5 4 3 3 2 3 4 5 4 4 3 3 4 4 5 4 3 3 1 1 3 6 7 4 2 0 1 2 2 1 3 3 2 3 2 2 3 2 4 5 4 7 7 2 2 5 4 6 7 7 10 15 17 17 20 22 21 18 17 18 17 17
12 13 16 20 20 18 14 9 4 5 8 9 10 6 3 3 2 2 2 2 1 3 5 5 5 5 5 5 4 6 3 2 4 5 3 2 0 1 2 2 3 4 3 2 1 1 2 6 8 6 4 2 4 2 0 0 2 2 1 1 3 3 5 2 4 3 2 4 5 2 4 5 5 8 10 16 19 20 21 20 20 20 20 19 17 16 16 16
13 13 15 24 25 19 12 8 7 10 8 9 9 4 1 2 2 3 2 1 0 1 3 4 3 3 3 4 4 7 6 3 4 4 3 2 1 1 2 3 2 2 1 1 1 2 1 5 8 4 5 4 2 1 2 2 2 1 2 4 3 2 4 3 1 4 4 5 5 4 9 10 6 5 11 22 23 21 21 19 19 19 19 18 16 15 16 16
6 6 11 23 24 15 8 8 11 11 8 10 9 4 2 1 2 3 2 1 1 1 4 3 0 1 1 1 4 7 5 4 5 4 2 3 2 1 2 3 2 2 2 1 1 2 1 4 8 3 4 7 3 2 4 4 0 1 3 3 2 2 3 2 1 2 3 6 5 6 11 9 4 3 10 18 18 20 21 19 19 20 19 17 16 16 17 16
3 3 5 18 19 13 12 12 12 10 9 8 5 3 2 1 2 3 3 2 2 2 4 0 1 2 1 1 2 5 4 3 4 4 2 2 3 0 4 1 2 2 3 1 2 2 1 1 6 5 3 5 5 4 4 6 4 3 2 3 2 2 4 2 1 2 2 6 4 5 8 4 4 4 9 14 14 16 18 18 18 18 17 16 15 16 16 16
4 3 3 18 16 6 15 25 18 9 8 5 2 2 1 1 2 3 3 2 1 2 2 0 0 3 2 1 1 2 2 2 2 2 1 1 3 2 1 2 2 3 4 2 2 1 2 1 4 6 4 4 4 2 3 4 4 3 3 4 4 2 1 2 2 2 2 5 3 4 6 1 3 4 8 12 13 13 15 16 15 15 16 16 16 16 15 15
4 4 4 20 16 2 7 21 14 4 5 4 2 3 1 1 0 2 1 1 1 0 1 2 2 2 1 2 2 2 2 2 1 1 1 1 1 2 1 3 2 3 3 4 2 1 1 1 2 6 5 5 6 6 4 3 4 3 2 3 3 3 2 3 6 2 2 4 3 4 8 1 1 4 7 10 12 12 14 15 14 15 16 16 16 16 15 14
6 4 6 17 14 13 14 10 4 3 5 3 2 2 1 1 1 2 3 3 2 1 2 3 2 1 1 1 2 1 2 2 2 1 1 2 3 3 2 3 4 2 2 1 2 1 0 2 0 6 6 6 13 10 0 2 4 4 3 3 1 1 1 2 8 6 4 5 3 3 6 3 3 3 8 10 12 12 13 14 15 15 15 16 17 17 16 13
4 2 6 14 8 11 16 7 4 5 4 0 1 2 2 2 2 3 3 3 2 2 3 2 1 2 1 0 1 1 2 1 2 2 2 3 4 4 3 4 4 3 2 0 2 1 1 2 1 6 6 6 11 6 4 2 2 2 3 2 1 2 3 5 7 4 4 9 5 3 6 3 0 6 10 12 16 16 16 17 17 15 14 16 19 18 16 13
3 2 6 17 10 4 8 5 2 3 2 1 3 3 3 2 2 3 3 3 2 1 2 2 1 1 1 0 1 1 3 1 1 2 1 2 4 1 2 3 3 2 1 0 1 2 2 0 1 4 7 9 8 6 4 3 2 1 4 2 4 6 9 6 4 2 3 7 7 6 6 4 6 11 15 20 24 23 22 21 19 17 15 15 17 17 16 13
4 2 4 16 21 12 5 4 6 5 2 3 5 4 3 2 3 2 1 1 1 1 1 1 1 0 1 1 2 2 2 1 2 3 3 3 4 2 1 2 2 2 0 1 1 1 2 1 1 1 3 7 8 9 8 7 5 5 7 10 11 12 13 8 5 4 3 6 8 5 5 7 11 14 18 22 23 24 24 23 20 18 18 17 17 17 16 13
4 4 2 8 14 11 4 1 5 6 4 4 4 3 3 3 1 1 1 1 1 1 1 2 1 1 2 4 4 4 3 1 2 3 3 4 5 3 0 2 1 1 2 3 2 1 1 1 3 6 6 6 8 11 7 5 7 9 10 14 13 13 12 7 4 3 5 8 7 3 6 12 14 15 19 20 20 21 21 22 21 20 20 19 17 18 19 14
3 3 1 1 4 5 5 5 5 4 2 4 3 2 3 3 3 2 1 0 0 1 1 1 4 4 3 4 5 3 5 4 3 2 3 4 5 5 1 3 1 1 3 2 2 2 3 4 5 8 10 10 11 13 10 7 6 7 9 12 13 13 13 10 5 4 7 8 6 5 11 15 14 16 19 19 18 19 19 19 19 19 18 18 18 20 20 15
3 3 1 1 2 3 3 3 4 6 5 4 3 2 3 4 4 2 2 2 2 2 1 2 5 4 1 1 2 2 6 6 5 3 3 3 4 6 6 3 3 4 3 2 3 2 3 4 4 3 8 10 10 12 11 7 3 7 10 11 13 14 13 12 9 7 7 6 7 10 15 16 14 15 17 17 16 17 18 17 17 17 18 18 20 21 18 15
4 4 1 3 4 3 2 1 4 7 8 5 4 4 3 4 4 1 2 3 4 4 4 3 6 6 3 3 1 0 3 3 5 5 2 3 4 3 5 3 2 3 3 2 3 1 2 4 4 3 8 11 9 7 6 3 3 9 10 10 11 12 13 14 13 9 8 9 10 12 16 14 12 13 15 16 15 14 15 16 17 18 19 20 21 19 15 16
3 4 1 4 5 2 2 3 3 5 6 4 4 3 2 3 2 2 1 2 2 4 4 2 6 7 4 3 3 2 5 5 6 7 2 3 5 1 2 3 1 4 5 3 3 2 1 4 4 4 8 13 11 5 2 1 7 9 10 11 12 14 15 16 15 11 9 10 10 12 14 12 11 15 18 18 17 17 19 21 20 19 20 23 21 17 15 18
5 5 6 6 4 4 3 3 3 5 4 4 2 1 1 1 1 1 1 1 1 1 1 1 6 6 2 0 3 6 7 6 8 10 6 4 6 3 2 1 1 5 6 3 2 3 2 3 5 6 7 13 11 11 14 8 6 9 13 17 16 15 14 14 13 10 9 9 10 12 11 10 12 17 20 19 20 22 23 23 21 20 23 24 19 16 17 19
7 4 5 7 4 3 3 3 3 4 2 2 0 0 1 0 3 2 1 1 2 3 4 4 3 2 3 4 5 5 5 7 8 7 4 5 7 4 3 3 2 1 2 2 2 2 2 1 4 4 5 12 13 14 17 12 2 2 8 13 15 14 14 15 14 12 10 6 6 9 9 13 17 19 20 20 21 22 21 20 19 20 22 20 17 17 19 19
Wind_Direction
265 276 291 322 10 31 48 47 42 22 10 355 345 336 333 332 327 324 319 318 318 318 317 318 320 318 309 295 295 287 316 333 330 9 29 3 350 347 340 334 335 342 340 338 342 341 336 335 342 352 359 11 24 171 211 67 85 58 89 171 255 219 217 202 198 214 194 270 269 259 205 192 249 262 253 333 234 239 259 260 266 276 261 245 258 256 181 169
259 264 317 64 57 54 55 44 36 20 5 340 330 321 321 321 318 318 315 319 321 321 329 337 336 314 288 276 260 275 306 329 338 13 13 356 355 348 335 332 330 335 337 341 345 353 0 333 338 356 10 7 320 10 339 316 90 114 128 205 244 208 221 205 197 218 201 259 260 259 233 203 225 215 142 259 256 261 256 261 263 271 269 262 259 210 174 168
206 120 88 76 70 64 60 47 36 8 344 324 321 319 320 321 319 322 321 326 327 334 356 356 351 331 276 252 250 290 311 340 10 358 354 357 357 346 336 330 327 334 338 339 335 335 332 310 325 353 14 343 303 353 19 321 335 177 138 237 248 220 246 244 211 217 228 253 271 270 245 212 231 204 139 232 264 269 239 240 225 240 252 245 225 184 176 171
118 103 91 84 87 84 79 53 16 333 324 319 322 324 326 329 331 332 330 331 336 356 3 359 4 5 310 233 258 296 336 27 13 324 349 2 1 352 341 328 328 336 336 335 330 325 318 312 326 32 38 319 311 15 59 295 320 190 148 205 237 220 279 259 215 222 239 227 235 260 264 256 244 199 195 194 270 273 241 229 215 222 237 231 206 193 187 179
122 111 109 109 114 107 80 15 330 318 320 323 328 334 340 343 345 348 347 344 358 13 2 5 16 25 39 73 1 326 39 42 322 333 359 7 5 358 348 333 332 338 340 338 330 329 331 338 29 47 39 309 325 17 295 287 87 235 224 212 224 181 274 260 221 233 239 206 251 258 248 251 236 201 218 184 221 252 233 217 216 222 235 229 204 195 195 191
140 140 144 140 129 122 352 316 315 318 323 330 337 344 348 348 350 357 4 17 39 12 8 14 20 32 46 46 39 37 86 98 318 350 6 8 5 1 356 341 336 343 342 338 336 347 355 8 26 20 35 340 319 336 271 309 48 260 279 282 255 210 239 259 221 232 220 202 258 226 239 264 322 280 230 198 226 243 238 201 208 222 231 231 216 190 195 203
160 163 157 155 153 236 303 308 315 321 328 338 349 351 346 347 344 345 359 28 30 14 16 14 14 23 27 24 23 36 90 178 331 4 10 10 8 360 358 347 342 342 341 343 343 353 6 9 356 209 80 342 285 233 272 313 17 212 266 307 289 242 238 243 229 240 213 220 240 241 299 296 262 276 296 239 242 247 255 245 223 234 238 236 224 199 202 208
173 172 169 178 229 285 304 312 318 325 334 345 356 351 342 339 335 334 351 9 358 19 11 3 6 6 352 350 27 38 48 313 343 14 12 10 12 8 5 351 342 336 346 356 341 313 352 12 337 185 48 291 223 188 321 334 359 186 240 289 307 284 267 266 269 267 251 241 250 284 292 266 234 259 308 270 263 261 256 252 245 246 253 244 228 216 210 211
176 179 187 220 281 302 310 317 325 332 343 354 348 343 338 343 350 3 72 97 51 9 355 1 12 9 355 9 83 51 329 331 3 12 8 4 3 13 22 13 1 350 351 3 9 355 346 29 295 236 191 240 206 323 351 0 324 229 239 284 299 297 298 294 279 267 260 262 274 277 276 275 267 283 283 263 263 275 267 247 244 239 246 243 232 226 214 213
185 195 222 283 301 310 316 323 331 341 354 347 336 337 340 355 21 61 104 116 50 344 347 1 11 16 22 62 79 45 324 359 15 7 3 358 354 5 24 19 11 9 5 6 28 37 104 184 238 232 173 182 54 341 356 81 231 239 270 287 289 296 300 277 261 274 285 274 242 250 274 280 294 310 274 266 262 289 308 273 259 236 241 243 236 234 222 217
200 230 283 303 312 316 323 332 337 347 347 330 331 338 345 1 33 62 74 49 333 336 345 351 4 24 53 72 85 55 338 8 11 7 1 353 355 356 11 14 6 9 12 21 25 21 1 258 231 176 120 336 351 327 286 227 246 288 323 310 305 315 309 291 281 288 300 282 225 214 268 284 316 224 244 264 274 331 330 293 284 255 244 248 242 240 232 226
232 284 304 311 316 324 335 341 342 352 335 329 334 335 341 346 3 28 30 16 343 340 344 356 8 20 57 63 83 52 350 1 359 3 359 347 353 348 351 358 354 357 1 22 17 12 7 319 68 83 302 265 321 343 305 284 333 312 21 335 311 346 342 326 323 293 220 260 229 197 290 306 251 226 244 265 290 336 320 287 283 272 256 256 253 249 240 236
274 300 307 313 326 337 347 354 0 8 349 343 339 334 338 342 349 349 3 21 11 1 358 360 0 360 52 57 29 6 353 351 352 357 357 346 347 342 325 337 345 347 344 16 18 16 19 4 76 98 140 92 307 300 61 2 3 294 18 27 323 356 335 306 347 334 349 249 310 55 318 305 273 252 254 271 305 327 302 281 280 279 270 262 257 257 250 244
268 288 291 315 336 346 3 23 24 14 356 349 348 355 14 32 40 45 65 79 74 358 350 348 346 357 65 64 295 1 351 350 0 1 358 348 343 342 334 338 350 347 316 340 11 15 7 359 71 89 78 81 295 315 28 1 11 322 345 37 10 5 299 308 339 324 315 318 39 75 222 285 293 291 277 262 296 313 298 290 286 282 278 270 259 256 255 249
232 242 270 323 337 6 38 52 49 25 6 9 36 62 71 67 63 76 90 89 65 9 347 346 351 29 73 354 331 359 349 356 6 4 359 348 339 333 329 335 346 15 317 307 310 340 347 359 63 69 331 12 33 31 13 350 9 16 12 343 338 9 293 312 326 245 272 302 46 88 231 276 290 297 299 284 286 297 293 292 293 289 280 272 265 254 254 253
201 217 282 330 358 64 71 85 71 48 49 65 73 73 67 51 45 68 83 106 90 0 357 358 354 64 94 348 332 351 347 348 351 356 357 347 330 306 311 322 325 348 332 313 270 281 1 44 66 78 21 16 28 38 34 17 354 3 38 318 299 333 318 316 320 343 336 304 347 65 247 278 286 296 306 310 309 301 286 289 296 297 289 276 267 257 253 255
193 220 297 5 92 94 96 96 74 62 73 84 82 75 70 52 29 26 194 161 98 348 13 16 355 77 84 341 329 338 326 325 330 341 353 353 335 301 312 321 324 322 330 341 324 296 23 46 53 39 46 34 358 38 53 21 333 329 22 339 281 283 303 315 312 338 19 356 315 332 235 262 278 291 302 305 316 320 300 297 299 299 301 293 278 265 255 252
189 225 319 110 111 106 110 100 79 75 80 92 98 86 74 67 61 58 85 208 270 338 17 7 16 93 13 339 325 308 306 314 322 335 352 359 353 321 324 302 311 329 343 25 38 23 20 17 49 38 21 19 5 50 58 0 287 288 311 323 308 296 275 286 293 326 18 359 301 298 271 275 284 292 298 300 318 327 311 312 308 306 309 301 298 282 266 258
173 179 122 119 114 117 123 110 92 86 89 104 117 89 45 57 62 54 51 61 37 28 65 328 23 111 282 312 308 311 310 314 325 337 352 358 347 325 349 329 339 12 28 28 354 15 40 21 42 37 357 341 337 68 115 200 196 228 262 255 286 300 280 271 271 284 7 342 296 269 276 286 295 297 301 306 319 328 322 334 338 331 326 316 314 297 284 275
152 141 132 122 120 131 130 116 102 94 91 87 73 337 352 20 35 27 31 44 75 111 116 260 39 107 302 306 320 335 338 325 343 356 357 356 340 337 17 14 25 41 33 341 310 11 74 61 41 357 293 286 274 228 189 200 189 214 257 275 283 283 283 289 275 269 11 355 283 253 283 289 293 294 295 305 318 339 343 344 346 342 341 343 343 328 320 304
156 148 140 132 135 139 130 123 116 100 65 19 14 40 101 133 75 61 338 18 17 79 65 278 245 12 308 294 328 345 355 346 3 5 2 360 356 11 1 11 39 29 350 309 288 0 64 61 5 263 244 258 269 247 217 234 202 244 283 297 309 281 275 296 281 278 14 27 276 308 326 301 299 300 299 311 327 345 351 336 326 327 337 357 5 358 358 351
162 154 144 142 142 137 128 131 136 132 67 69 84 94 133 147 108 149 154 77 358 18 41 342 19 0 302 294 346 350 37 12 1 357 1 2 13 27 0 33 62 16 330 356 32 10 42 46 300 260 239 268 308 24 88 186 168 350 337 331 322 300 288 301 287 313 352 25 281 329 333 301 296 299 299 311 319 319 331 321 304 304 345 23 18 7 20 28
162 153 145 144 140 129 119 124 137 127 106 100 99 103 121 107 96 173 116 99 18 2 30 12 51 13 344 20 358 2 53 32 356 341 355 3 11 44 67 38 48 36 347 19 69 61 46 2 282 266 5 355 337 16 45 35 38 6 341 12 317 315 350 311 301 333 328 289 254 310 313 293 303 321 313 305 304 309 326 333 332 341 40 59 33 5 44 58
164 152 147 144 132 111 95 92 114 120 116 111 101 106 124 103 88 156 136 83 43 7 36 42 105 37 7 4 351 0 78 56 346 336 353 6 357 25 75 42 44 38 354 17 88 92 101 275 288 0 27 35 359 2 31 28 358 316 234 194 304 303 289 253 283 322 321 309 313 336 332 302 322 347 318 308 332 332 337 349 1 359 348 31 38 6 21 110
163 153 151 146 122 89 81 78 103 123 126 114 105 115 125 93 63 136 150 54 19 320 347 20 68 19 348 344 351 352 127 40 5 322 347 6 349 352 33 27 76 25 338 54 86 82 62 278 313 4 13 43 62 23 33 44 355 325 255 216 257 281 266 260 294 327 350 352 350 28 14 298 314 334 281 296 334 325 333 353 344 319 309 71 91 243 243 229
162 156 160 160 138 85 62 76 117 132 140 122 123 138 129 70 30 63 128 65 31 305 347 2 5 0 345 343 346 355 78 6 311 342 2 6 342 152 50 349 43 14 312 108 77 87 352 344 24 43 37 41 44 26 322 98 35 338 254 208 242 287 287 287 313 354 23 307 301 66 92 278 319 321 271 297 323 304 322 347 327 306 296 266 213 230 238 232
164 163 171 179 177 132 342 157 154 160 168 145 156 193 226 329 2 17 81 47 19 303 350 342 328 1 351 338 342 47 78 309 316 8 6 3 344 130 69 7 12 359 308 94 46 337 321 347 12 39 49 35 24 351 273 120 62 292 234 196 309 308 297 289 314 164 226 282 319 26 114 253 307 288 285 331 330 307 325 335 319 308 300 299 288 278 280 267
167 169 177 188 199 244 288 170 173 195 172 19 359 315 221 228 323 19 86 64 354 331 10 313 328 359 347 343 6 70 134 300 18 357 346 8 10 40 64 34 110 331 338 92 93 280 300 348 346 9 33 25 348 298 266 146 132 260 251 297 301 289 272 247 151 199 272 21 333 319 73 326 287 277 302 348 342 307 319 324 317 308 296 297 297 289 282 277
168 172 178 190 202 241 254 167 182 234 278 346 22 57 150 137 355 53 76 89 328 341 174 325 345 346 344 356 14 37 3 352 65 324 341 15 13 22 74 32 129 95 348 82 124 266 274 260 243 104 60 351 278 273 232 170 239 275 289 309 311 23 2 108 120 139 14 50 270 275 7 33 290 285 308 348 348 310 310 312 310 305 295 287 287 288 289 296
168 170 175 185 193 300 318 135 45 10 348 6 40 76 138 69 56 60 47 60 352 333 305 9 359 335 1 11 355 1 22 4 342 336 356 16 357 10 87 38 90 92 359 36 75 320 306 297 199 136 143 242 281 286 216 185 247 317 358 340 346 24 38 51 69 80 51 346 252 236 155 84 304 289 279 265 299 318 316 310 311 314 307 295 290 291 296 302
164 164 168 180 207 348 347 43 8 2 4 7 18 53 79 40 60 84 60 319 333 341 353 2 337 358 22 29 352 349 8 341 335 12 14 359 359 12 41 19 29 52 10 7 13 350 344 2 291 269 247 213 328 313 299 214 272 8 24 3 352 348 7 19 355 35 49 292 256 220 152 115 237 272 264 260 281 294 270 288 306 312 308 308 313 314 308 296
151 151 147 79 4 1 7 349 338 344 347 343 10 59 80 42 35 77 323 319 345 342 353 319 308 354 1 15 9 342 338 342 348 37 23 16 32 30 38 26 355 11 13 359 350 347 340 267 288 307 283 189 7 337 336 348 14 18 20 32 24 354 356 359 331 357 305 264 248 181 19 292 226 251 262 273 287 292 271 276 293 297 301 315 323 324 317 299
130 136 108 44 29 13 6 348 333 334 317 327 51 58 79 75 45 341 295 333 16 315 315 289 301 332 343 16 7 332 343 355 342 17 31 52 53 32 28 33 31 32 8 314 351 352 333 305 319 344 308 210 87 38 344 324 345 355 14 67 49 36 5 321 294 323 289 277 279 147 142 284 281 264 248 252 275 294 314 313 306 310 322 331 337 345 345 340
110 114 83 44 32 13 360 344 325 310 298 79 77 54 67 80 59 330 317 284 284 324 335 314 316 336 11 40 345 325 5 338 337 17 6 14 38 11 352 3 23 53 106 72 21 14 356 316 307 345 308 354 55 119 217 256 305 312 185 131 102 136 116 272 253 273 286 293 298 22 142 232 272 297 276 268 295 331 353 353 360 5 2 1 4 9 7 2
106 88 59 36 23 8 359 350 334 299 135 92 74 59 74 99 245 264 292 267 284 324 314 323 359 18 9 347 322 350 10 303 350 35 15 20 44 2 347 333 353 33 76 56 323 10 19 277 262 277 272 139 283 254 127 85 311 293 161 86 356 184 172 231 219 217 267 301 294 290 212 223 251 311 329 355 4 13 15 13 19 17 11 12 12 11 9 5
94 71 45 27 16 0 352 354 13 120 123 88 69 59 90 170 214 169 218 291 10 308 320 348 22 37 351 324 334 347 338 305 359 27 20 31 105 313 338 279 329 28 75 93 277 5 28 280 285 320 320 190 190 235 67 178 285 326 35 310 275 185 144 180 271 276 339 300 279 299 286 288 330 323 350 19 16 14 15 14 18 14 8 10 9 6 3 0
83 68 42 22 11 358 358 28 78 117 108 73 78 92 167 190 178 175 210 3 174 231 46 32 15 28 345 319 318 326 337 352 6 22 11 2 344 352 352 291 304 49 71 129 241 258 185 286 296 307 297 284 204 227 300 239 172 73 292 269 281 52 93 110 293 335 357 281 274 325 297 306 345 327 4 19 10 6 9 8 8 7 6 6 2 359 356 356
78 78 45 18 10 9 23 71 90 100 90 67 80 118 143 136 182 198 194 131 199 119 69 77 22 75 134 283 303 312 342 3 357 10 12 346 336 87 73 319 292 81 30 46 243 289 134 295 295 254 252 295 333 23 326 312 58 149 251 281 16 16 322 15 1 293 317 287 289 315 300 316 16 345 9 18 6 1 1 0 3 1 0 358 353 352 350 352
17 72 33 3 12 38 60 86 90 69 69 74 81 122 138 147 223 215 185 159 165 91 66 99 264 36 77 140 294 306 341 7 344 357 39 20 330 82 101 1 284 52 26 83 173 266 46 309 292 278 256 302 346 13 335 319 327 350 341 328 13 174 214 240 235 199 257 276 282 312 306 345 43 357 17 19 4 1 358 357 359 354 351 351 348 347 345 347
17 78 3 350 360 39 61 67 67 45 60 91 139 127 105 199 248 248 201 178 196 92 60 270 35 18 337 336 338 309 339 358 329 340 11 19 322 307 95 135 268 324 358 57 127 290 11 116 268 289 309 341 345 302 270 289 300 340 357 320 299 284 249 274 264 165 212 266 268 292 290 42 60 348 24 20 1 0 358 353 351 346 346 345 342 343 342 342
42 84 327 348 355 238 63 53 50 38 72 76 110 104 69 179 197 318 305 10 347 46 81 124 105 45 343 351 345 299 325 326 308 313 285 315 341 304 292 146 162 320 2 41 38 333 351 164 251 300 326 341 295 254 214 222 213 181 216 245 253 279 328 311 289 272 215 239 208 261 285 292 86 345 24 18 359 355 352 348 345 340 341 341 339 339 336 336
55 84 316 346 23 88 81 53 9 51 86 58 60 93 53 87 75 9 16 26 20 9 40 89 87 43 124 320 308 292 333 306 281 311 263 240 217 231 251 124 118 83 72 14 314 280 122 106 223 280 273 273 277 278 57 167 188 155 198 211 190 299 67 263 279 294 295 273 222 251 282 235 187 7 22 12 356 350 344 343 339 334 335 338 337 334 331 331
74 115 352 354 14 84 75 59 333 28 63 52 33 49 38 66 48 18 25 20 11 3 18 39 17 17 102 270 339 341 327 265 237 281 278 261 252 228 187 140 128 111 105 335 311 345 37 80 19 291 283 276 275 291 58 103 129 98 260 223 127 315 313 253 262 302 296 280 279 272 267 234 174 12 12 359 351 348 343 342 337 330 331 334 334 332 330 330
109 157 12 17 24 94 89 95 117 60 61 53 45 28 19 60 61 33 20 7 6 45 50 22 321 12 337 270 80 285 308 339 267 293 315 268 263 237 146 155 158 144 134 339 340 338 320 285 24 338 325 323 323 341 350 325 19 339 278 346 49 353 335 302 280 350 278 275 299 288 271 299 346 355 360 355 350 345 341 339 334 329 329 329 330 329 327 326
71 67 331 19 38 63 97 139 133 121 123 80 57 24 10 44 62 48 64 33 358 165 95 339 257 224 313 3 29 319 329 13 278 314 355 284 267 309 68 170 154 150 215 50 68 307 274 221 125 74 315 314 321 319 317 325 335 312 320 356 16 9 353 327 301 325 305 314 327 304 285 315 331 349 357 352 346 339 334 330 326 326 327 326 326 327 326 325
72 51 323 0 27 49 66 81 93 103 129 104 65 13 34 58 12 329 94 82 1 75 68 320 295 30 12 32 27 326 305 309 286 317 332 285 277 302 112 141 140 150 98 58 41 45 60 250 207 182 201 242 266 278 303 349 322 315 346 1 5 8 3 357 349 331 311 311 309 307 331 323 327 347 350 342 338 332 324 321 320 321 323 324 325 325 324 322
94 86 75 3 5 32 37 19 43 70 123 123 99 20 30 20 325 331 33 72 332 35 72 32 43 46 9 21 28 319 299 324 327 303 285 270 271 294 328 106 78 5 94 64 336 56 62 300 248 198 215 237 254 274 302 336 324 339 13 11 4 3 7 20 19 323 311 307 294 330 337 322 324 340 338 331 329 322 315 313 315 317 317 321 324 321 318 318
79 125 165 98 60 53 43 23 55 64 49 70 97 64 29 22 23 18 324 327 354 358 51 33 21 28 324 312 37 330 318 338 334 299 290 297 307 323 334 32 42 7 56 39 328 82 113 281 265 208 245 254 257 274 289 303 358 55 41 17 9 7 7 8 349 315 315 303 286 317 327 317 322 332 326 320 315 310 307 305 306 313 317 320 321 316 313 319
84 103 342 32 83 131 135 60 86 69 45 50 70 49 49 55 44 330 279 350 355 347 43 34 331 333 312 253 156 36 311 332 315 295 290 316 320 333 323 328 30 6 26 23 321 124 139 281 291 301 294 292 284 266 254 245 96 68 45 23 15 8 4 359 340 312 297 277 274 310 322 317 322 326 318 314 308 301 305 308 309 316 320 321 318 313 315 323
127 131 123 59 69 88 66 38 69 69 42 42 62 44 59 75 38 315 320 48 5 339 29 36 307 310 299 222 171 229 241 211 254 264 222 325 312 257 249 277 308 341 1 26 322 340 62 301 326 1 318 311 318 323 328 100 119 89 45 24 12 5 4 357 342 321 296 277 281 311 322 318 325 328 324 325 325 321 321 321 320 321 323 320 315 311 317 322
98 124 134 107 63 8 17 28 61 79 39 17 45 35 26 55 166 203 295 216 177 257 266 265 290 299 319 260 223 252 250 216 235 248 228 252 271 230 221 283 45 355 348 4 338 355 16 305 339 14 330 308 322 335 331 338 112 95 39 19 6 360 357 343 330 314 286 278 301 321 325 322 324 327 327 328 329 327 322 320 321 322 320 315 310 311 318 319
96 97 108 101 74 7 11 16 41 74 62 346 317 235 30 287 228 187 128 243 234 230 215 206 242 280 344 328 299 280 261 238 245 259 243 240 254 256 276 303 44 41 313 328 332 338 60 18 331 358 319 301 315 328 323 323 345 85 40 24 0 348 341 329 320 308 287 276 323 329 320 322 325 328 329 328 327 324 318 315 316 315 312 308 307 312 315 315